Location: Launay
(47.2429°N, 1.5727°E)
Time: 22:11:06
(UTC+00:00)

PKM - Pass Details

Date: 19 May 2025
Orbit: 414 x 13723 km, 55.3° (Epoch: 10 June)

Event Time Altitude Azimuth Distance (km) Brightness Sun altitude
Rises 22:16:31 0° 250° (WSW) 2,482 7.2 -19.5°
Reaches altitude 10° 22:18:28 10° 256° (WSW) 1,492 6.1 -19.7°
Maximum altitude 22:21:09 50° 335° (NNW) 577 4.3 -19.9°
Drops below altitude 10° 22:24:57 10° 53° (NE) 2,115 7.0 -20.1°
Sets 22:28:20 0° 59° (ENE) 3,792 8.2 -20.3°
